• In Netherlands
  • List of Countries
  • For 7 days
  • Water Temperature
  • Satellite Maps
  • Weather Map
  • Weather Widgets
  • user-avatar
    Login

    Hourly Weather Baku

    Today, 26 May, Saturday

    Time Temperature Precipitation Wind Pressure Humidity
    00:00 +27°C° 0 mm 2 mps 755 mmHg 39%
    01:00 +27°C° 0 mm 2 mps 755 mmHg 41%
    02:00 +26°C° 0 mm 2 mps 754 mmHg 44%
    03:00 +26°C° 0 mm 3 mps 754 mmHg 46%
    04:00 +26°C° 0.1 mm 3 mps 754 mmHg 46%
    05:00 +26°C° 0.1 mm 3 mps 754 mmHg 46%
    06:00 +26°C° 0.1 mm 4 mps 754 mmHg 46%
    07:00 +27°C° 0 mm 4 mps 755 mmHg 45%
    08:00 +28°C° 0 mm 5 mps 755 mmHg 44%
    09:00 +29°C° 0 mm 5 mps 755 mmHg 43%
    10:00 +30°C° 0 mm 5 mps 755 mmHg 43%
    11:00 +30°C° 0 mm 5 mps 755 mmHg 43%
    12:00 +32°C° 0 mm 5 mps 755 mmHg 43%
    13:00 +32°C° 0 mm 6 mps 755 mmHg 43%
    14:00 +32°C° 0 mm 6 mps 755 mmHg 44%
    15:00 +32°C° 0 mm 7 mps 755 mmHg 44%
    16:00 +31°C° 0 mm 9 mps 756 mmHg 50%
    17:00 +28°C° 0 mm 11 mps 756 mmHg 56%
    18:00 +27°C° 0 mm 14 mps 756 mmHg 62%
    19:00 +26°C° 0 mm 15 mps 757 mmHg 64%
    20:00 +23°C° 0 mm 17 mps 758 mmHg 66%
    21:00 +22°C° 0 mm 18 mps 759 mmHg 68%
    22:00 +22°C° 0.2 mm 18 mps 759 mmHg 67%
    23:00 +20°C° 0.2 mm 18 mps 760 mmHg 66%

    Tomorrow, 27 May, Sunday

    Time Temperature Precipitation Wind Pressure Humidity
    00:00 +20°C° 0.2 mm 18 mps 761 mmHg 64%
    01:00 +20°C° 0.2 mm 18 mps 761 mmHg 62%
    02:00 +20°C° 0.2 mm 18 mps 762 mmHg 59%
    03:00 +19°C° 0.2 mm 17 mps 762 mmHg 56%
    04:00 +19°C° 0 mm 17 mps 763 mmHg 57%
    05:00 +19°C° 0 mm 16 mps 764 mmHg 57%
    06:00 +19°C° 0 mm 16 mps 765 mmHg 58%
    07:00 +19°C° 0.1 mm 15 mps 765 mmHg 57%
    08:00 +20°C° 0.1 mm 15 mps 766 mmHg 55%
    09:00 +20°C° 0.1 mm 14 mps 767 mmHg 54%
    10:00 +20°C° 0 mm 13 mps 767 mmHg 54%
    11:00 +21°C° 0 mm 12 mps 768 mmHg 54%
    12:00 +19°C° 0 mm 11 mps 768 mmHg 55%
    13:00 +19°C° 0 mm 10 mps 768 mmHg 54%
    14:00 +19°C° 0 mm 9 mps 768 mmHg 53%
    15:00 +20°C° 0 mm 8 mps 768 mmHg 53%
    16:00 +20°C° 0 mm 7 mps 768 mmHg 51%
    17:00 +20°C° 0 mm 6 mps 768 mmHg 49%
    18:00 +20°C° 0 mm 6 mps 768 mmHg 48%
    19:00 +20°C° 0 mm 5 mps 768 mmHg 46%
    20:00 +19°C° 0 mm 4 mps 768 mmHg 45%
    21:00 +19°C° 0 mm 3 mps 768 mmHg 44%
    22:00 +19°C° 0 mm 2 mps 768 mmHg 44%
    23:00 +19°C° 0 mm 2 mps 767 mmHg 43%

    Day after tomorrow, 28 May, Monday

    Time Temperature Precipitation Wind Pressure Humidity
    00:00 +20°C° 0 mm 1 mps 767 mmHg 43%
    01:00 +19°C° 0 mm 2 mps 767 mmHg 44%
    02:00 +19°C° 0 mm 2 mps 766 mmHg 45%
    03:00 +19°C° 0 mm 2 mps 766 mmHg 46%
    04:00 +19°C° 0 mm 3 mps 765 mmHg 46%
    05:00 +19°C° 0 mm 4 mps 765 mmHg 46%
    06:00 +20°C° 0 mm 5 mps 765 mmHg 46%
    07:00 +21°C° 0 mm 5 mps 765 mmHg 45%
    08:00 +22°C° 0 mm 6 mps 764 mmHg 43%
    09:00 +23°C° 0 mm 7 mps 764 mmHg 41%
    10:00 +24°C° 0 mm 6 mps 764 mmHg 39%
    11:00 +26°C° 0 mm 6 mps 763 mmHg 38%
    12:00 +27°C° 0 mm 6 mps 763 mmHg 37%
    13:00 +27°C° 0 mm 6 mps 762 mmHg 39%
    14:00 +27°C° 0 mm 6 mps 762 mmHg 40%
    15:00 +27°C° 0 mm 6 mps 761 mmHg 42%
    16:00 +26°C° 0 mm 6 mps 761 mmHg 44%
    17:00 +26°C° 0 mm 5 mps 761 mmHg 47%
    18:00 +25°C° 0 mm 5 mps 761 mmHg 50%
    19:00 +25°C° 0 mm 4 mps 761 mmHg 52%
    20:00 +24°C° 0 mm 3 mps 761 mmHg 53%
    21:00 +24°C° 0 mm 2 mps 761 mmHg 55%
    22:00 +24°C° 0 mm 2 mps 761 mmHg 56%
    23:00 +24°C° 0 mm 2 mps 761 mmHg 57%

    29 May, Tuesday

    Time Temperature Precipitation Wind Pressure Humidity
    00:00 +24°C° 0 mm 3 mps 761 mmHg 58%
    01:00 +23°C° 0 mm 4 mps 761 mmHg 61%
    02:00 +22°C° 0 mm 6 mps 762 mmHg 64%
    03:00 +22°C° 0 mm 7 mps 762 mmHg 66%
    04:00 +22°C° 0 mm 8 mps 762 mmHg 65%
    05:00 +22°C° 0 mm 8 mps 762 mmHg 65%
    06:00 +22°C° 0 mm 9 mps 763 mmHg 64%
    07:00 +22°C° 0 mm 9 mps 763 mmHg 61%
    08:00 +23°C° 0 mm 9 mps 764 mmHg 58%
    09:00 +24°C° 0 mm 9 mps 764 mmHg 55%
    10:00 +24°C° 0 mm 9 mps 764 mmHg 55%
    11:00 +24°C° 0 mm 9 mps 764 mmHg 54%
    12:00 +26°C° 0 mm 8 mps 764 mmHg 53%
    13:00 +26°C° 0 mm 8 mps 764 mmHg 53%
    14:00 +26°C° 0 mm 8 mps 764 mmHg 53%
    15:00 +26°C° 0 mm 8 mps 764 mmHg 53%
    16:00 +24°C° 0 mm 8 mps 764 mmHg 54%
    17:00 +24°C° 0 mm 8 mps 764 mmHg 55%
    18:00 +23°C° 0 mm 8 mps 763 mmHg 57%
    19:00 +23°C° 0 mm 7 mps 764 mmHg 57%
    20:00 +22°C° 0 mm 6 mps 764 mmHg 57%
    21:00 +22°C° 0 mm 5 mps 765 mmHg 56%
    22:00 +21°C° 0 mm 5 mps 765 mmHg 56%
    23:00 +21°C° 0 mm 6 mps 764 mmHg 55%

    30 May, Wednesday

    Time Temperature Precipitation Wind Pressure Humidity
    00:00 +21°C° 0 mm 6 mps 764 mmHg 55%
    01:00 +21°C° 0 mm 6 mps 764 mmHg 55%
    02:00 +21°C° 0 mm 5 mps 764 mmHg 55%
    03:00 +21°C° 0 mm 5 mps 763 mmHg 56%
    04:00 +21°C° 0 mm 5 mps 763 mmHg 54%
    05:00 +21°C° 0 mm 4 mps 763 mmHg 52%
    06:00 +21°C° 0 mm 4 mps 764 mmHg 51%
    07:00 +22°C° 0 mm 4 mps 763 mmHg 46%
    08:00 +24°C° 0 mm 3 mps 763 mmHg 42%
    09:00 +25°C° 0 mm 3 mps 763 mmHg 37%
    10:00 +25°C° 0 mm 4 mps 763 mmHg 35%
    11:00 +26°C° 0 mm 4 mps 762 mmHg 33%
    12:00 +27°C° 0 mm 4 mps 762 mmHg 31%
    13:00 +27°C° 0 mm 5 mps 762 mmHg 30%
    14:00 +27°C° 0 mm 5 mps 761 mmHg 30%
    15:00 +27°C° 0 mm 5 mps 761 mmHg 29%
    16:00 +27°C° 0 mm 5 mps 761 mmHg 31%
    17:00 +27°C° 0 mm 5 mps 760 mmHg 33%
    18:00 +26°C° 0 mm 5 mps 760 mmHg 35%
    19:00 +26°C° 0 mm 5 mps 760 mmHg 38%
    20:00 +25°C° 0 mm 4 mps 760 mmHg 40%
    21:00 +25°C° 0 mm 4 mps 760 mmHg 43%
    22:00 +25°C° 0 mm 3 mps 760 mmHg 44%
    23:00 +25°C° 0 mm 3 mps 759 mmHg 45%

    31 May, Thursday

    Time Temperature Precipitation Wind Pressure Humidity
    00:00 +25°C° 0 mm 3 mps 759 mmHg 46%
    01:00 +24°C° 0 mm 3 mps 758 mmHg 46%
    02:00 +24°C° 0 mm 3 mps 758 mmHg 47%
    03:00 +24°C° 0 mm 3 mps 757 mmHg 47%
    04:00 +24°C° 0 mm 3 mps 757 mmHg 47%
    05:00 +25°C° 0 mm 3 mps 757 mmHg 47%
    06:00 +25°C° 0 mm 3 mps 757 mmHg 47%
    07:00 +26°C° 0 mm 3 mps 757 mmHg 45%
    08:00 +27°C° 0 mm 3 mps 757 mmHg 42%
    09:00 +28°C° 0 mm 3 mps 757 mmHg 39%
    10:00 +29°C° 0 mm 4 mps 757 mmHg 38%
    11:00 +29°C° 0 mm 4 mps 756 mmHg 36%
    12:00 +30°C° 0 mm 4 mps 756 mmHg 34%
    13:00 +30°C° 0 mm 5 mps 755 mmHg 35%
    14:00 +32°C° 0 mm 5 mps 755 mmHg 36%
    15:00 +32°C° 0 mm 5 mps 754 mmHg 37%
    16:00 +30°C° 0 mm 5 mps 754 mmHg 39%
    17:00 +30°C° 0 mm 5 mps 754 mmHg 40%
    18:00 +29°C° 0 mm 4 mps 754 mmHg 42%
    19:00 +29°C° 0 mm 4 mps 754 mmHg 45%
    20:00 +28°C° 0 mm 3 mps 754 mmHg 47%
    21:00 +27°C° 0 mm 3 mps 754 mmHg 50%
    22:00 +27°C° 0 mm 2 mps 754 mmHg 50%
    23:00 +27°C° 0 mm 2 mps 753 mmHg 50%
    Show more